TimeEST,TemperatureF,Dew PointF,Humidity,Sea Level PressureIn,VisibilityMPH,Wind Direction,Wind SpeedMPH,Gust SpeedMPH,PrecipitationIn,Events,Conditions,WindDirDegrees,DateUTC
12:53 AM,23.0,12.9,65,30.27,10.0,North,10.4,-,N/A,,Clear,360,2013-02-22 05:53:00
1:53 AM,23.0,12.9,65,30.28,10.0,North,6.9,-,N/A,,Clear,10,2013-02-22 06:53:00
2:53 AM,21.9,12.9,68,30.30,10.0,North,5.8,-,N/A,,Clear,360,2013-02-22 07:53:00
3:53 AM,21.9,12.9,68,30.31,10.0,North,5.8,-,N/A,,Clear,360,2013-02-22 08:53:00
4:53 AM,21.9,14.0,72,30.32,10.0,Calm,Calm,-,N/A,,Clear,0,2013-02-22 09:53:00
5:53 AM,21.9,14.0,72,30.36,10.0,NNW,3.5,-,N/A,,Clear,330,2013-02-22 10:53:00
6:53 AM,23.0,15.1,72,30.35,10.0,NE,5.8,-,N/A,,Clear,40,2013-02-22 11:53:00
7:53 AM,25.0,16.0,69,30.38,10.0,North,3.5,-,N/A,,Clear,10,2013-02-22 12:53:00
8:53 AM,27.0,17.1,66,30.40,10.0,NNE,3.5,-,N/A,,Clear,20,2013-02-22 13:53:00
9:53 AM,30.9,19.0,61,30.36,10.0,East,6.9,-,N/A,,Clear,100,2013-02-22 14:53:00
10:53 AM,33.1,19.9,59,30.36,10.0,East,8.1,-,N/A,,Clear,90,2013-02-22 15:53:00
11:53 AM,34.0,21.0,59,30.35,10.0,ESE,5.8,-,N/A,,Clear,110,2013-02-22 16:53:00
12:53 PM,36.0,21.9,57,30.31,10.0,SE,8.1,-,N/A,,Clear,130,2013-02-22 17:53:00
1:53 PM,37.0,21.9,54,30.30,10.0,ESE,4.6,-,N/A,,Clear,120,2013-02-22 18:53:00
2:53 PM,37.0,23.0,57,30.29,10.0,South,4.6,-,N/A,,Overcast,180,2013-02-22 19:53:00
3:53 PM,37.0,23.0,57,30.29,10.0,SSE,8.1,-,N/A,,Overcast,160,2013-02-22 20:53:00
4:53 PM,36.0,25.0,64,30.29,10.0,SSE,6.9,-,N/A,,Overcast,150,2013-02-22 21:53:00
5:53 PM,35.1,25.0,67,30.28,10.0,SE,6.9,-,N/A,,Overcast,140,2013-02-22 22:53:00
6:53 PM,35.1,26.1,70,30.29,10.0,SSE,6.9,-,N/A,,Overcast,160,2013-02-22 23:53:00
7:38 PM,35.6,26.6,70,30.31,10.0,SSE,4.6,-,N/A,,Overcast,160,2013-02-23 00:38:00
7:53 PM,35.1,27.0,72,30.30,10.0,SE,5.8,-,N/A,,Overcast,140,2013-02-23 00:53:00
8:53 PM,34.0,27.0,75,30.28,10.0,ESE,3.5,-,N/A,,Overcast,120,2013-02-23 01:53:00
9:37 PM,33.8,26.6,75,30.28,10.0,Calm,Calm,-,N/A,,Overcast,0,2013-02-23 02:37:00
9:53 PM,34.0,28.0,79,30.27,10.0,Calm,Calm,-,N/A,,Overcast,0,2013-02-23 02:53:00
10:17 PM,33.8,28.4,81,30.28,10.0,Calm,Calm,-,N/A,,Overcast,0,2013-02-23 03:17:00
10:48 PM,33.8,28.4,81,30.27,10.0,Calm,Calm,-,N/A,,Overcast,0,2013-02-23 03:48:00
10:53 PM,34.0,28.0,79,30.26,10.0,Calm,Calm,-,N/A,,Overcast,0,2013-02-23 03:53:00
11:42 PM,33.8,28.4,81,30.25,9.0,East,3.5,-,0.00,,Overcast,100,2013-02-23 04:42:00
11:53 PM,34.0,28.9,82,30.24,10.0,East,3.5,-,0.00,,Overcast,100,2013-02-23 04:53:00